Location: Ceske Budejovice
(48.9830°N, 14.4670°E)
Time: 08:53:24
(UTC+02:00)

ISS - Pass Details

Date: 27 April 2024
Orbit: 409 x 414 km, 51.6° (Epoch: 21 May)

Event Time Altitude Azimuth Distance (km) Brightness Sun altitude
Exits shadow 04:38:43 17° 242° (WSW) 1,132 -2.2 -10.7°
Maximum altitude 04:41:11 78° 157° (SSE) 424 -3.8 -10.4°
Drops below altitude 10° 04:44:29 10° 71° (ENE) 1,478 0.4 -9.9°
Sets 04:46:35 0° 70° (ENE) 2,341 1.8 -9.6°
